Regional Weather Roundup
Issued by NWS

Home | Current Version | Previous Version | Graphics & Text | Print | Product List | Glossary On
Versions: 1 2 3 4 5 6 7 8 9 10 11 12 13 14 15 16 17 18 19 20 21 22 23 24 25 26 27 28 29 30 31 32 33 34 35 36 37 38 39 40 41 42 43 44 45 46 47 48 49 50
000
ASUS45 KPSR 290610
RWRAZ

ARIZONA HOURLY REGIONAL WEATHER ROUNDUP
NATIONAL WEATHER SERVICE PHOENIX AZ
1100 PM MST THU APR 28 2016

NOTE: FAIR INDICATES FEW OR NO CLOUDS BELOW 12,000 FEET WITH NO
SIGNIFICANT WEATHER AND/OR OBSTRUCTIONS TO VISIBILITY.

AZZ001>003-036-290700-
NORTHWEST ARIZONA

CITY           SKY/WX    TMP DP  RH WIND       PRES   REMARKS
BULLHEAD CITY  CLOUDY    63  54  72 N10       29.83R
KINGMAN        CLOUDY    51  43  74 S6        29.85F
6HR MIN TEMP:  47; 6HR MAX TEMP:  55; 6HR PCP:  0.18;

$$

AZZ004>008-015-016-018-290700-
NORTH CENTRAL ARIZONA

CITY           SKY/WX    TMP DP  RH WIND       PRES   REMARKS
GRAND CANYON   CLOUDY    38  36  92 SW7       29.88R FOG     WCI  33
6HR MIN TEMP:  38; 6HR MAX TEMP:  40;

WILLIAMS       CLOUDY    37  36  93 SW7       29.95S WCI  32
PRESCOTT       PTCLDY    41  39  93 NW3       29.87S
6HR MIN TEMP:  41; 6HR MAX TEMP:  49; 6HR PCP: TRACE;

FLAGSTAFF      CLOUDY    35  33  92 SW6       29.88R WCI  30
6HR MIN TEMP:  32; 6HR MAX TEMP:  42; 6HR PCP: TRACE;

PAYSON         CLOUDY    46  32  57 NW5       29.88S
PAGE           LGT RAIN  47  43  86 N8        29.82S
6HR MIN TEMP:  47; 6HR MAX TEMP:  57; 6HR PCP:  0.13;

$$

AZZ009>014-017-290700-
NORTHEAST ARIZONA

CITY           SKY/WX    TMP DP  RH WIND       PRES   REMARKS
WINSLOW        CLOUDY    43  27  53 S7        29.84S
6HR MIN TEMP:  42; 6HR MAX TEMP:  61;

SAINT JOHNS    PTCLDY    42  20  41 W7        29.84S
6HR MIN TEMP:  42; 6HR MAX TEMP:  61;

WINDOW ROCK    PTCLDY    38  18  44 E5        29.86S WCI  34
6HR MIN TEMP:  38; 6HR MAX TEMP:  54; 6HR PCP: TRACE;

SHOW LOW       CLEAR     34   7  32 CALM      29.88S
$$

AZZ023-290700-
GREATER PHOENIX AREA

CITY           SKY/WX    TMP DP  RH WIND       PRES   REMARKS
PHOENIX        PTCLDY    68  33  27 SW9       29.77R
6HR MIN TEMP:  67; 6HR MAX TEMP:  75;

BUCKEYE        PTCLDY    63  34  34 S5        29.80R
LUKE AFB       CLEAR     64  36  35 NW3       29.77R
6HR MIN TEMP:  63; 6HR MAX TEMP:  75;

DEER VALLEY    CLEAR     63  31  30 NW3       29.78R
6HR MIN TEMP:  63; 6HR MAX TEMP:  72;

MESA-GATEWAY   PTCLDY    63  36  36 SW8       29.80R
$$

AZZ027-028-290700-
SOUTHWEST MARICOPA COUNTY AND PINAL COUNTY

CITY           SKY/WX    TMP DP  RH WIND       PRES   REMARKS
CASA GRANDE    CLEAR     64  32  29 W8        29.82R
6HR MIN TEMP:  63; 6HR MAX TEMP:  73;

GILA BEND      CLEAR     64  34  33 SW8       29.78R
6HR MIN TEMP:  64; 6HR MAX TEMP:  74;

$$

AZZ503-504-507>509-290700-
SOUTHEAST ARIZONA

CITY           SKY/WX    TMP DP  RH WIND       PRES   REMARKS
TUCSON         CLEAR     59  21  23 SW5       29.86R
6HR MIN TEMP:  59; 6HR MAX TEMP:  75;

DAVIS-MONTHAN  CLEAR     60  24  25 NW6       29.84R
6HR MIN TEMP:  60; 6HR MAX TEMP:  75;

NOGALES        CLEAR     51  31  46 SW6       29.89F
6HR MIN TEMP:  51; 6HR MAX TEMP:  70;

SIERRA VISTA   CLEAR     51  30  45 VRB2      29.91R
6HR MIN TEMP:  51; 6HR MAX TEMP:  70;

DOUGLAS        CLEAR     54  16  22 W16       29.88R
6HR MIN TEMP:  54; 6HR MAX TEMP:  76;

SAFFORD        CLEAR     57  22  25 NW9       29.81R
6HR MIN TEMP:  57; 6HR MAX TEMP:  72;

$$

AZZ020-021-025-026-031-290700-
SOUTHWEST ARIZONA

CITY           SKY/WX    TMP DP  RH WIND       PRES   REMARKS
YUMA           PTCLDY    63  42  46 W8        29.81R
6HR MIN TEMP:  63; 6HR MAX TEMP:  76;

$$

CAZ031-033-041-043-047-048-061-290700-
SOUTHERN CALIFORNIA

CITY           SKY/WX    TMP DP  RH WIND       PRES   REMARKS
DOWNTOWN L.A.  CLEAR     57  50  77 CALM      29.95R
6HR MIN TEMP:  57; 6HR MAX TEMP:  65;

L.A. AIRPORT   MOCLDY    58  51  78 N3        29.96R
6HR MIN TEMP:  58; 6HR MAX TEMP:  64;

SAN DIEGO      MOCLDY    61  50  67 SW5       29.99R
6HR MIN TEMP:  60; 6HR MAX TEMP:  64;

BURBANK        CLEAR     55  48  77 S3        29.95R
6HR MIN TEMP:  55; 6HR MAX TEMP:  67;

ONTARIO        PTCLDY    55  44  66 W7        29.96R
6HR MIN TEMP:  55; 6HR MAX TEMP:  66;

RIVERSIDE      CLEAR     57  44  62 CALM      29.96R
6HR MIN TEMP:  57; 6HR MAX TEMP:  69;

PALM SPRINGS   CLEAR     69  41  36 W26G39    29.80R
6HR MIN TEMP:  68; 6HR MAX TEMP:  80;

EL CENTRO NAS  CLEAR    N/A N/A N/A W17       29.82R
6HR MIN TEMP:  63; 6HR MAX TEMP:  76;

IMPERIAL       CLEAR     63  43  48 W12       29.80R
6HR MIN TEMP:  63; 6HR MAX TEMP:  77;

BLYTHE         PTCLDY    68  43  40 S8        29.76R
6HR MIN TEMP:  66; 6HR MAX TEMP:  76;

NEEDLES        CLOUDY    64  52  64 NW5       29.80R
6HR MIN TEMP:  64; 6HR MAX TEMP:  72; 6HR PCP: TRACE;

$$

NVZ020-UTZ003-290700-
SOUTHERN NEVADA-UTAH

CITY           SKY/WX    TMP DP  RH WIND       PRES   REMARKS
LAS VEGAS      MOCLDY    57  49  74 CALM      29.80R
6HR MIN TEMP:  53; 6HR MAX TEMP:  69; 6HR PCP:  0.15;

SALT LAKE CITY CLOUDY    48  34  58 W5        29.83S
6HR MIN TEMP:  48; 6HR MAX TEMP:  55;

$$

NMZ009-TXZ055-290700-
NEW MEXICO-WEST TEXAS

CITY           SKY/WX    TMP DP  RH WIND       PRES   REMARKS
ALBUQUERQUE    MOCLDY    59  20  22 NW16G23   29.79R
6HR MIN TEMP:  59; 6HR MAX TEMP:  71;

EL PASO        CLEAR     69  30  23 W25G31    29.74S
6HR MIN TEMP:  69; 6HR MAX TEMP:  82;

$$


........................KEY........................
SKY/WX - SKY CONDITION/WEATHER
TMP    - TEMPERATURE IN FAHRENHEIT
DP     - DEW POINT IN FAHRENHEIT
RH     - RELATIVE HUMIDITY IN PERCENT
WIND   - DIRECTION AND SPEED IN MILES PER HOUR (MPH)
VRB    - VARIABLE WIND DIRECTION
PRES   - MEAN SEA LEVEL PRESSURE IN INCHES OF MERCURY
         F - FALLING PRESSURE   R - RISING PRESSURE
         S - STEADY PRESSURE
VSB    - VISIBILITY IN MILES
HX     - HEAT INDEX IN FAHRENHEIT
WCI    - WIND CHILL INDEX IN FAHRENHEIT
TC     - TEMPERATURE IN CELSIUS WHICH IS ALSO KNOWN AS
         TEMPERATURE IN CENTIGRADE
AFB    - AIR FORCE BASE
         LUKE AFB IS LUKE AIR FORCE BASE
         DAVIS-MONTHAN IS DAVIS-MONTHAN AIR FORCE BASE
NAS    - NAVAL AIR STATION
         EL CENTRO NAS IS EL CENTRO NAVAL AIR STATION
N/A    - NOT AVAILABLE




USA.gov is the U.S. government's official web portal to all federal, state and local government web resources and services.